Aeroporto :
LOGIN :

Iscrizione | Disclaimer

   EN    FR    IT 

 










Sommario :    VFR   VFR Marginale   IFR   IFR Intensivo   IFR Molto Intensivo
Visibilità : 
Base nubi : 
>= 8 km
>= 3000ft
5 / 8 km
1000 / 3000 ft
1500m / 5 km
500 / 1000 ft
800 / 1500m
200 / 500 ft
< 800m
< 200 ft
Simboli :   Temporali  Nebbia  Neve Forte  Precipitazioni Forti  Vento > 20 kt
SIGMETs :   Varie  Temporali  Ghiacco  Turbolenza  Onda orograficha  Ceneri Vulcaniche







- Altitudine del aeroporto : 135 ft
- Codice IATA : EDI
- Carte del aeroporto


EGPH - Edinburgh

ULTIMO METAR :
  • 180720Z 21015KT 9999 BKN025 14/11 Q0992

METARs OBSOLETI :
  • 180650Z 21015KT 9999 BKN027 14/11 Q0992
  • 180620Z 22015KT 9999 SCT038 14/11 Q0992
  • 180550Z 22014KT 9999 BKN028 13/11 Q0992
  • 180520Z 21015KT 9999 BKN028 13/10 Q0992
  • 180450Z 20014KT 9999 SCT028 13/10 Q0992

TAF TAF EGPH
Valido dal 18 a 06 ore il 19 a 06 ore UTC


180500Z 1806/1906 21012KT 9999 FEW030
TEMPO 1806/1808 5000 RA BKN014
TEMPO 1810/1818 25018G28KT 6000 SHRA
PROB40
TEMPO 1823/1906 7000 SHRA
ATIS : +44 131 339 2823
Nessun NOTAM noto per questo aeroporto.



MetMap, La meteo Aeronautica in un colpo d'occhio ! - Copyright ORBIFLY Dicembre 2007 - Disclaimer

ORBIFLY MET'MAP TEAM :

Programmazione e sviluppo : Alexandra Zaïnal
Concezione e sviluppo : Baudouin d'Aumeries
Co-Programmazione e sviluppo : Marc-Olivier Méhu
Supporto tecnico e logistico : Manuel Goepfert
Aiuto per la traduzione : Arnaldo La Scala

Contatto : metmap@orbifly.com




FONTI E CREDITI :

   NOAA